Location: ?????
(33.6267°N, 35.4675°E)
Time: 18:41:22
(UTC+00:00)

Cosmos 1656 - Pass Details

Date: 12 November 2019
Orbit: 800 x 848 km, 71.1° (Epoch: 14 December)

Event Time Altitude Azimuth Distance (km) Brightness Sun altitude
Rises 15:34:10 0° 193° (SSW) 3,366 7.2 -12.1°
Reaches altitude 10° 15:36:37 10° 191° (S) 2,429 6.4 -12.6°
Maximum altitude 15:42:09 71° 108° (ESE) 871 3.6 -13.7°
Drops below altitude 10° 15:47:38 10° 25° (NNE) 2,411 5.7 -14.8°
Enters shadow 15:48:43 - 24° (NNE) 2,823 6.1 -15.1°
